Time,TemperatureF,DewpointF,PressureIn,WindDirection,WindDirectionDegrees,WindSpeedMPH,WindSpeedGustMPH,Humidity,HourlyPrecipIn,Conditions,Clouds,dailyrainin,SoftwareType,DateUTC
2013-08-13 00:01:00,63.2,62.2,29.82,North,0,0.0,0.0,97,0.00,,,0.00,WUHU216HW,2013-08-13 04:01:00,
2013-08-13 00:02:00,63.2,62.2,29.82,North,0,0.0,0.0,97,0.00,,,0.00,WUHU216HW,2013-08-13 04:02:00,
2013-08-13 00:05:00,63.0,62.0,29.82,North,0,0.0,0.0,97,0.00,,,0.00,WUHU216HW,2013-08-13 04:05:00,
2013-08-13 00:07:00,63.0,62.0,29.82,ENE,68,0.0,0.2,97,0.00,,,0.00,WUHU216HW,2013-08-13 04:07:00,
2013-08-13 00:09:00,62.8,61.8,29.82,ENE,68,0.1,0.2,97,0.00,,,0.00,WUHU216HW,2013-08-13 04:09:00,
2013-08-13 00:14:00,62.6,61.6,29.82,ENE,68,0.0,0.2,97,0.00,,,0.00,WUHU216HW,2013-08-13 04:14:00,
2013-08-13 00:19:00,62.5,61.5,29.81,NW,315,0.1,0.7,97,0.00,,,0.00,WUHU216HW,2013-08-13 04:19:00,
2013-08-13 00:24:00,62.3,61.3,29.82,North,0,0.0,0.0,97,0.00,,,0.00,WUHU216HW,2013-08-13 04:24:00,
2013-08-13 00:29:00,62.3,61.3,29.82,WSW,248,0.0,0.2,97,0.00,,,0.00,WUHU216HW,2013-08-13 04:29:00,
2013-08-13 00:34:00,62.3,61.3,29.82,SSW,212,0.8,1.1,97,0.00,,,0.00,WUHU216HW,2013-08-13 04:34:00,
2013-08-13 00:39:00,62.3,61.3,29.82,North,0,0.0,0.0,97,0.00,,,0.00,WUHU216HW,2013-08-13 04:39:00,
2013-08-13 00:44:00,62.3,61.3,29.82,ESE,113,0.2,0.4,97,0.00,,,0.00,WUHU216HW,2013-08-13 04:44:00,
2013-08-13 00:49:00,62.3,61.3,29.82,NE,47,0.7,1.1,97,0.00,,,0.00,WUHU216HW,2013-08-13 04:49:00,
2013-08-13 00:54:00,62.3,61.3,29.81,NNW,338,0.0,0.2,97,0.00,,,0.00,WUHU216HW,2013-08-13 04:54:00,
2013-08-13 00:59:00,62.3,61.3,29.81,NNW,338,0.0,0.2,97,0.00,,,0.00,WUHU216HW,2013-08-13 04:59:00,
2013-08-13 01:04:00,61.9,60.9,29.81,West,270,0.2,0.4,97,0.00,,,0.00,WUHU216HW,2013-08-13 05:04:00,
2013-08-13 01:09:00,61.7,60.7,29.82,North,0,0.0,0.0,97,0.00,,,0.00,WUHU216HW,2013-08-13 05:09:00,
2013-08-13 01:14:00,61.6,60.9,29.82,North,0,0.0,0.0,98,0.00,,,0.00,WUHU216HW,2013-08-13 05:14:00,
2013-08-13 01:19:00,61.6,60.9,29.82,North,0,0.0,0.0,98,0.00,,,0.00,WUHU216HW,2013-08-13 05:19:00,
2013-08-13 01:24:00,61.2,60.5,29.82,North,0,0.0,0.0,98,0.00,,,0.00,WUHU216HW,2013-08-13 05:24:00,
2013-08-13 01:29:00,61.2,60.5,29.81,North,0,0.0,0.0,98,0.00,,,0.00,WUHU216HW,2013-08-13 05:29:00,
2013-08-13 01:34:00,60.8,60.1,29.81,North,0,0.0,0.0,98,0.00,,,0.00,WUHU216HW,2013-08-13 05:34:00,
2013-08-13 01:39:00,60.8,60.1,29.82,SW,225,0.1,0.4,98,0.00,,,0.00,WUHU216HW,2013-08-13 05:39:00,
2013-08-13 01:44:00,60.5,59.8,29.82,NNW,329,0.5,0.7,98,0.00,,,0.00,WUHU216HW,2013-08-13 05:44:00,
2013-08-13 01:49:00,60.5,59.8,29.82,NW,322,0.1,0.2,98,0.00,,,0.00,WUHU216HW,2013-08-13 05:49:00,
2013-08-13 01:54:00,60.5,59.8,29.82,NNW,338,0.3,0.4,98,0.00,,,0.00,WUHU216HW,2013-08-13 05:54:00,
2013-08-13 01:59:00,60.5,59.8,29.81,NNE,23,0.2,0.2,98,0.00,,,0.00,WUHU216HW,2013-08-13 05:59:00,
2013-08-13 02:04:00,60.3,59.6,29.82,East,85,0.2,0.2,98,0.00,,,0.00,WUHU216HW,2013-08-13 06:04:00,
2013-08-13 02:09:00,60.1,59.4,29.82,NE,45,0.2,0.7,98,0.00,,,0.00,WUHU216HW,2013-08-13 06:09:00,
2013-08-13 02:14:00,60.1,59.4,29.82,ENE,63,0.4,0.7,98,0.00,,,0.00,WUHU216HW,2013-08-13 06:14:00,
2013-08-13 02:19:00,59.8,59.2,29.82,North,0,0.0,0.0,98,0.00,,,0.00,WUHU216HW,2013-08-13 06:19:00,
2013-08-13 02:24:00,59.6,59.0,29.82,North,0,0.7,1.1,98,0.00,,,0.00,WUHU216HW,2013-08-13 06:24:00,
2013-08-13 02:29:00,59.6,59.0,29.82,North,0,0.3,0.4,98,0.00,,,0.00,WUHU216HW,2013-08-13 06:29:00,
2013-08-13 02:34:00,59.4,58.8,29.82,North,7,2.5,3.1,98,0.00,,,0.00,WUHU216HW,2013-08-13 06:34:00,
2013-08-13 02:39:00,59.2,58.6,29.82,ESE,113,0.2,0.4,98,0.00,,,0.00,WUHU216HW,2013-08-13 06:39:00,
2013-08-13 02:44:00,59.0,58.4,29.82,NE,49,0.6,1.1,98,0.00,,,0.00,WUHU216HW,2013-08-13 06:44:00,
2013-08-13 02:49:00,58.9,58.3,29.82,NNE,26,1.0,1.6,98,0.00,,,0.00,WUHU216HW,2013-08-13 06:49:00,
2013-08-13 02:54:00,58.7,58.1,29.82,NE,45,0.4,0.4,98,0.00,,,0.00,WUHU216HW,2013-08-13 06:54:00,
2013-08-13 03:00:00,58.7,58.1,29.82,North,2,0.6,0.7,98,0.00,,,0.00,WUHU216HW,2013-08-13 07:00:00,
2013-08-13 03:05:00,58.5,57.9,29.82,North,0,0.3,0.4,98,0.00,,,0.00,WUHU216HW,2013-08-13 07:05:00,
2013-08-13 03:10:00,58.3,57.7,29.82,NNE,23,0.5,1.3,98,0.00,,,0.00,WUHU216HW,2013-08-13 07:10:00,
2013-08-13 03:15:00,58.1,57.5,29.82,ENE,59,0.7,1.1,98,0.00,,,0.00,WUHU216HW,2013-08-13 07:15:00,
2013-08-13 03:20:00,58.0,57.4,29.82,WNW,293,0.3,0.4,98,0.00,,,0.00,WUHU216HW,2013-08-13 07:20:00,
2013-08-13 03:25:00,58.0,57.4,29.82,ENE,68,0.7,1.1,98,0.00,,,0.00,WUHU216HW,2013-08-13 07:25:00,
2013-08-13 03:30:00,58.0,57.4,29.82,NNE,16,0.3,0.7,98,0.00,,,0.00,WUHU216HW,2013-08-13 07:30:00,
2013-08-13 03:35:00,57.8,57.2,29.82,NNE,25,1.0,1.1,98,0.00,,,0.00,WUHU216HW,2013-08-13 07:35:00,
2013-08-13 03:40:00,57.8,57.2,29.82,North,0,0.0,0.0,98,0.00,,,0.00,WUHU216HW,2013-08-13 07:40:00,
2013-08-13 03:45:00,57.6,57.3,29.82,North,1,1.3,1.8,99,0.00,,,0.00,WUHU216HW,2013-08-13 07:45:00,
2013-08-13 03:50:00,57.4,57.1,29.82,NNE,23,0.2,0.4,99,0.00,,,0.00,WUHU216HW,2013-08-13 07:50:00,
2013-08-13 03:55:00,57.4,56.8,29.82,North,0,0.0,0.0,98,0.00,,,0.00,WUHU216HW,2013-08-13 07:55:00,
2013-08-13 04:00:00,57.2,56.6,29.82,ENE,76,0.3,0.7,98,0.00,,,0.00,WUHU216HW,2013-08-13 08:00:00,
2013-08-13 04:05:00,57.1,56.5,29.82,ENE,68,0.3,0.4,98,0.00,,,0.00,WUHU216HW,2013-08-13 08:05:00,
2013-08-13 04:10:00,56.9,56.3,29.83,NNW,346,0.3,1.1,98,0.00,,,0.00,WUHU216HW,2013-08-13 08:10:00,
2013-08-13 04:15:00,56.9,56.3,29.83,NE,45,0.9,1.1,98,0.00,,,0.00,WUHU216HW,2013-08-13 08:15:00,
2013-08-13 04:20:00,56.9,56.3,29.82,NNE,23,0.7,1.1,98,0.00,,,0.00,WUHU216HW,2013-08-13 08:20:00,
2013-08-13 04:25:00,56.5,55.9,29.82,East,90,0.2,0.9,98,0.00,,,0.00,WUHU216HW,2013-08-13 08:25:00,
2013-08-13 04:30:00,56.5,55.9,29.82,ENE,68,0.6,0.9,98,0.00,,,0.00,WUHU216HW,2013-08-13 08:30:00,
2013-08-13 04:35:00,56.3,55.7,29.83,NNE,23,0.6,1.1,98,0.00,,,0.00,WUHU216HW,2013-08-13 08:35:00,
2013-08-13 04:40:00,56.3,55.7,29.83,ENE,68,0.9,1.1,98,0.00,,,0.00,WUHU216HW,2013-08-13 08:40:00,
2013-08-13 04:45:00,56.2,55.6,29.83,NE,37,0.5,0.7,98,0.00,,,0.00,WUHU216HW,2013-08-13 08:45:00,
2013-08-13 04:50:00,56.0,55.4,29.83,NNE,23,0.4,1.1,98,0.00,,,0.00,WUHU216HW,2013-08-13 08:50:00,
2013-08-13 04:55:00,55.8,55.2,29.83,NE,45,0.6,0.9,98,0.00,,,0.00,WUHU216HW,2013-08-13 08:55:00,
2013-08-13 05:00:00,55.8,55.2,29.84,NE,52,1.6,2.2,98,0.00,,,0.00,WUHU216HW,2013-08-13 09:00:00,
2013-08-13 05:05:00,55.6,55.0,29.84,ENE,69,1.5,1.8,98,0.00,,,0.00,WUHU216HW,2013-08-13 09:05:00,
2013-08-13 05:10:00,55.4,55.1,29.84,NNE,24,1.1,4.3,99,0.00,,,0.00,WUHU216HW,2013-08-13 09:10:00,
2013-08-13 05:15:00,55.3,55.0,29.84,NE,44,0.8,0.9,99,0.00,,,0.00,WUHU216HW,2013-08-13 09:15:00,
2013-08-13 05:20:00,55.3,55.0,29.84,North,0,0.0,0.0,99,0.00,,,0.00,WUHU216HW,2013-08-13 09:20:00,
2013-08-13 05:25:00,55.1,54.8,29.84,NNE,23,0.1,0.2,99,0.00,,,0.00,WUHU216HW,2013-08-13 09:25:00,
2013-08-13 05:30:00,54.9,54.6,29.84,North,0,0.0,0.0,99,0.00,,,0.00,WUHU216HW,2013-08-13 09:30:00,
2013-08-13 05:35:00,54.7,54.4,29.84,NE,36,0.2,0.7,99,0.00,,,0.00,WUHU216HW,2013-08-13 09:35:00,
2013-08-13 05:40:00,54.5,54.2,29.85,North,0,0.5,1.1,99,0.00,,,0.00,WUHU216HW,2013-08-13 09:40:00,
2013-08-13 05:46:00,54.4,54.1,29.85,NE,45,0.5,1.3,99,0.00,,,0.00,WUHU216HW,2013-08-13 09:46:00,
2013-08-13 05:51:00,54.4,54.1,29.85,North,0,0.0,0.0,99,0.01,,,0.01,WUHU216HW,2013-08-13 09:51:00,
2013-08-13 05:56:00,54.2,53.9,29.86,NNE,14,0.2,0.4,99,0.01,,,0.01,WUHU216HW,2013-08-13 09:56:00,
2013-08-13 06:01:00,54.2,53.9,29.86,NNE,33,1.5,1.6,99,0.01,,,0.01,WUHU216HW,2013-08-13 10:01:00,
2013-08-13 06:06:00,54.0,53.7,29.87,East,92,1.5,2.5,99,0.01,,,0.01,WUHU216HW,2013-08-13 10:06:00,
2013-08-13 06:11:00,53.8,53.5,29.87,North,0,0.3,0.4,99,0.01,,,0.01,WUHU216HW,2013-08-13 10:11:00,
2013-08-13 06:16:00,53.6,53.3,29.87,NNE,23,0.3,0.4,99,0.01,,,0.01,WUHU216HW,2013-08-13 10:16:00,
2013-08-13 06:21:00,53.5,53.2,29.87,NE,50,0.8,1.1,99,0.01,,,0.01,WUHU216HW,2013-08-13 10:21:00,
2013-08-13 06:26:00,53.3,53.0,29.87,NNE,23,0.3,0.4,99,0.01,,,0.01,WUHU216HW,2013-08-13 10:26:00,
2013-08-13 06:31:00,53.1,52.8,29.88,NNE,23,0.5,0.9,99,0.01,,,0.01,WUHU216HW,2013-08-13 10:31:00,
2013-08-13 06:36:00,52.9,52.9,29.88,East,85,0.2,0.4,100,0.01,,,0.01,WUHU216HW,2013-08-13 10:36:00,
2013-08-13 06:41:00,52.6,52.6,29.88,NNE,23,0.6,0.9,100,0.01,,,0.01,WUHU216HW,2013-08-13 10:41:00,
2013-08-13 06:46:00,52.4,52.4,29.88,ENE,77,0.4,1.1,100,0.01,,,0.01,WUHU216HW,2013-08-13 10:46:00,
2013-08-13 06:51:00,52.2,52.2,29.88,NNE,23,0.2,0.4,100,0.00,,,0.01,WUHU216HW,2013-08-13 10:51:00,
2013-08-13 06:56:00,52.0,52.0,29.88,NNE,18,0.5,1.3,100,0.00,,,0.01,WUHU216HW,2013-08-13 10:56:00,
2013-08-13 07:01:00,51.8,51.8,29.89,NE,39,0.5,1.8,100,0.00,,,0.01,WUHU216HW,2013-08-13 11:01:00,
2013-08-13 07:06:00,51.8,51.8,29.89,NE,45,0.1,0.2,100,0.00,,,0.01,WUHU216HW,2013-08-13 11:06:00,
2013-08-13 07:11:00,51.7,51.7,29.89,ESE,107,0.3,0.7,100,0.00,,,0.01,WUHU216HW,2013-08-13 11:11:00,
2013-08-13 07:16:00,51.5,51.5,29.89,WNW,296,0.3,0.4,100,0.00,,,0.01,WUHU216HW,2013-08-13 11:16:00,
2013-08-13 07:21:00,51.5,51.5,29.89,NNE,23,0.0,0.2,100,0.00,,,0.01,WUHU216HW,2013-08-13 11:21:00,
2013-08-13 07:26:00,51.7,51.7,29.89,ESE,108,0.1,0.4,100,0.00,,,0.01,WUHU216HW,2013-08-13 11:26:00,
2013-08-13 07:31:00,51.7,51.7,29.89,NE,43,0.6,1.1,100,0.00,,,0.01,WUHU216HW,2013-08-13 11:31:00,
2013-08-13 07:36:00,51.8,51.8,29.89,SE,132,0.9,2.5,100,0.00,,,0.01,WUHU216HW,2013-08-13 11:36:00,
2013-08-13 07:41:00,51.8,51.8,29.89,South,183,0.3,0.7,100,0.00,,,0.01,WUHU216HW,2013-08-13 11:41:00,
2013-08-13 07:46:00,51.8,51.8,29.90,NNE,15,1.0,1.3,100,0.00,,,0.01,WUHU216HW,2013-08-13 11:46:00,
2013-08-13 07:51:00,52.2,52.2,29.90,ENE,68,0.4,0.9,100,0.00,,,0.01,WUHU216HW,2013-08-13 11:51:00,
2013-08-13 07:56:00,52.2,52.2,29.90,North,8,1.6,2.2,100,0.00,,,0.01,WUHU216HW,2013-08-13 11:56:00,
2013-08-13 08:01:00,52.2,52.2,29.90,NE,50,0.8,1.1,100,0.00,,,0.01,WUHU216HW,2013-08-13 12:01:00,
2013-08-13 08:06:00,52.2,52.2,29.90,North,5,2.1,4.9,100,0.00,,,0.01,WUHU216HW,2013-08-13 12:06:00,
2013-08-13 08:11:00,52.6,52.6,29.91,NNE,25,1.0,2.5,100,0.00,,,0.01,WUHU216HW,2013-08-13 12:11:00,
2013-08-13 08:16:00,52.9,52.9,29.91,ENE,57,1.2,2.0,100,0.00,,,0.01,WUHU216HW,2013-08-13 12:16:00,
2013-08-13 08:21:00,52.9,52.9,29.91,NNE,23,0.7,1.1,100,0.00,,,0.01,WUHU216HW,2013-08-13 12:21:00,
2013-08-13 08:27:00,52.9,52.9,29.92,ENE,75,2.0,4.7,100,0.00,,,0.01,WUHU216HW,2013-08-13 12:27:00,
2013-08-13 08:32:00,53.1,53.1,29.91,NE,54,3.8,4.0,100,0.00,,,0.01,WUHU216HW,2013-08-13 12:32:00,
2013-08-13 08:37:00,53.6,53.3,29.91,NNE,17,3.4,4.7,99,0.00,,,0.01,WUHU216HW,2013-08-13 12:37:00,
2013-08-13 08:42:00,53.8,53.5,29.91,North,352,3.2,4.3,99,0.00,,,0.01,WUHU216HW,2013-08-13 12:42:00,
2013-08-13 08:47:00,54.0,54.0,29.91,ENE,72,3.3,4.9,100,0.00,,,0.01,WUHU216HW,2013-08-13 12:47:00,
2013-08-13 08:52:00,54.0,53.7,29.91,NNE,26,3.4,3.4,99,0.00,,,0.01,WUHU216HW,2013-08-13 12:52:00,
2013-08-13 08:57:00,54.4,54.1,29.92,North,5,2.9,6.3,99,0.00,,,0.01,WUHU216HW,2013-08-13 12:57:00,
2013-08-13 09:02:00,54.7,54.4,29.92,ESE,120,1.0,3.1,99,0.00,,,0.01,WUHU216HW,2013-08-13 13:02:00,
2013-08-13 09:07:00,55.1,54.8,29.92,NNW,343,2.5,4.5,99,0.00,,,0.01,WUHU216HW,2013-08-13 13:07:00,
2013-08-13 09:12:00,55.1,54.8,29.92,NNE,25,3.2,5.4,99,0.00,,,0.01,WUHU216HW,2013-08-13 13:12:00,
2013-08-13 09:17:00,55.8,55.5,29.92,ENE,76,2.5,2.7,99,0.00,,,0.01,WUHU216HW,2013-08-13 13:17:00,
2013-08-13 09:22:00,56.5,56.2,29.92,NNE,18,6.1,7.6,99,0.00,,,0.01,WUHU216HW,2013-08-13 13:22:00,
2013-08-13 09:27:00,56.9,56.3,29.93,NNE,15,3.1,6.3,98,0.00,,,0.01,WUHU216HW,2013-08-13 13:27:00,
2013-08-13 09:32:00,58.0,57.4,29.93,NE,47,4.6,6.0,98,0.00,,,0.01,WUHU216HW,2013-08-13 13:32:00,
2013-08-13 09:37:00,58.5,57.9,29.93,NNE,23,1.8,2.5,98,0.00,,,0.01,WUHU216HW,2013-08-13 13:37:00,
2013-08-13 09:42:00,58.3,57.0,29.93,NNW,347,1.6,1.8,96,0.00,,,0.01,WUHU216HW,2013-08-13 13:42:00,
2013-08-13 09:47:00,58.0,56.7,29.94,SE,125,1.2,1.8,96,0.00,,,0.01,WUHU216HW,2013-08-13 13:47:00,
2013-08-13 09:52:00,57.6,56.3,29.93,NE,44,0.7,2.2,96,0.00,,,0.01,WUHU216HW,2013-08-13 13:52:00,
2013-08-13 09:57:00,58.0,56.7,29.94,NNE,24,1.5,3.4,96,0.00,,,0.01,WUHU216HW,2013-08-13 13:57:00,
2013-08-13 10:02:00,58.1,56.5,29.94,NNE,18,1.1,1.3,94,0.00,,,0.01,WUHU216HW,2013-08-13 14:02:00,
2013-08-13 10:07:00,58.3,56.7,29.94,North,7,1.8,2.5,94,0.00,,,0.01,WUHU216HW,2013-08-13 14:07:00,
2013-08-13 10:12:00,58.7,57.1,29.94,NE,38,1.3,2.5,94,0.00,,,0.01,WUHU216HW,2013-08-13 14:12:00,
2013-08-13 10:17:00,59.4,57.4,29.94,NNE,16,3.9,5.6,93,0.00,,,0.01,WUHU216HW,2013-08-13 14:17:00,
2013-08-13 10:22:00,60.5,58.2,29.94,ENE,62,3.6,4.7,92,0.00,,,0.01,WUHU216HW,2013-08-13 14:22:00,
2013-08-13 10:27:00,60.5,57.8,29.94,NNE,27,1.6,2.5,91,0.00,,,0.01,WUHU216HW,2013-08-13 14:27:00,
2013-08-13 10:32:00,60.8,57.8,29.94,NE,53,1.2,1.6,90,0.00,,,0.01,WUHU216HW,2013-08-13 14:32:00,
2013-08-13 10:37:00,61.2,58.2,29.94,NNW,341,3.0,4.9,90,0.00,,,0.01,WUHU216HW,2013-08-13 14:37:00,
2013-08-13 10:42:00,61.7,58.3,29.94,NNE,32,1.2,2.0,89,0.00,,,0.01,WUHU216HW,2013-08-13 14:42:00,
2013-08-13 10:47:00,61.9,57.8,29.94,North,351,4.8,8.1,87,0.00,,,0.01,WUHU216HW,2013-08-13 14:47:00,
2013-08-13 10:52:00,61.7,57.6,29.94,NNE,23,2.5,3.1,87,0.00,,,0.01,WUHU216HW,2013-08-13 14:52:00,
2013-08-13 10:57:00,62.6,58.2,29.94,ENE,66,3.4,7.6,85,0.00,,,0.01,WUHU216HW,2013-08-13 14:57:00,
2013-08-13 11:02:00,63.0,58.6,29.94,North,4,1.3,2.5,85,0.00,,,0.01,WUHU216HW,2013-08-13 15:02:00,
2013-08-13 11:07:00,63.4,58.2,29.94,North,0,0.7,0.7,83,0.00,,,0.01,WUHU216HW,2013-08-13 15:07:00,
2013-08-13 11:12:00,63.4,58.2,29.94,North,354,3.1,4.7,83,0.00,,,0.01,WUHU216HW,2013-08-13 15:12:00,
2013-08-13 11:18:00,63.5,58.3,29.94,NE,44,2.0,2.5,83,0.00,,,0.01,WUHU216HW,2013-08-13 15:18:00,
2013-08-13 11:23:00,63.9,58.7,29.95,WNW,291,2.9,4.3,83,0.00,,,0.01,WUHU216HW,2013-08-13 15:23:00,
2013-08-13 11:28:00,64.1,58.6,29.95,ESE,110,2.1,2.5,82,0.00,,,0.01,WUHU216HW,2013-08-13 15:28:00,
2013-08-13 11:33:00,64.1,57.0,29.95,ENE,64,6.5,8.5,78,0.00,,,0.01,WUHU216HW,2013-08-13 15:33:00,
2013-08-13 11:38:00,63.9,57.6,29.95,NE,44,2.7,4.5,80,0.00,,,0.01,WUHU216HW,2013-08-13 15:38:00,
2013-08-13 11:43:00,63.7,56.6,29.95,WNW,303,2.3,5.4,78,0.00,,,0.01,WUHU216HW,2013-08-13 15:43:00,
2013-08-13 11:48:00,63.7,56.6,29.95,SSE,164,2.6,3.4,78,0.00,,,0.01,WUHU216HW,2013-08-13 15:48:00,
2013-08-13 11:53:00,64.1,57.0,29.95,NNE,16,2.0,2.9,78,0.00,,,0.01,WUHU216HW,2013-08-13 15:53:00,
2013-08-13 11:58:00,64.6,56.3,29.96,NE,46,4.8,6.9,74,0.00,,,0.01,WUHU216HW,2013-08-13 15:58:00,
2013-08-13 12:03:00,65.0,57.1,29.95,NNE,25,3.2,5.4,75,0.00,,,0.01,WUHU216HW,2013-08-13 16:03:00,
2013-08-13 12:08:00,65.0,57.5,29.95,NNE,25,2.2,3.4,76,0.00,,,0.01,WUHU216HW,2013-08-13 16:08:00,
2013-08-13 12:13:00,65.7,58.2,29.95,North,350,0.9,1.1,76,0.00,,,0.01,WUHU216HW,2013-08-13 16:13:00,
2013-08-13 12:18:00,66.4,58.5,29.95,ENE,72,3.3,5.4,75,0.00,,,0.01,WUHU216HW,2013-08-13 16:18:00,
2013-08-13 12:23:00,66.1,57.4,29.95,NW,323,1.7,2.0,73,0.00,,,0.01,WUHU216HW,2013-08-13 16:23:00,
2013-08-13 12:28:00,65.7,57.4,29.95,SE,143,2.1,2.2,74,0.00,,,0.01,WUHU216HW,2013-08-13 16:28:00,
2013-08-13 12:33:00,66.1,57.4,29.95,ENE,73,3.4,5.1,73,0.00,,,0.01,WUHU216HW,2013-08-13 16:33:00,
2013-08-13 12:38:00,66.6,57.8,29.95,NNE,19,3.2,6.5,73,0.00,,,0.01,WUHU216HW,2013-08-13 16:38:00,
2013-08-13 12:43:00,67.1,58.3,29.95,East,81,2.1,2.7,73,0.00,,,0.01,WUHU216HW,2013-08-13 16:43:00,
2013-08-13 12:48:00,67.9,59.1,29.95,WNW,299,1.1,1.8,73,0.00,,,0.01,WUHU216HW,2013-08-13 16:48:00,
2013-08-13 12:53:00,68.0,57.9,29.95,East,86,1.9,2.0,70,0.00,,,0.01,WUHU216HW,2013-08-13 16:53:00,
2013-08-13 12:58:00,68.0,57.9,29.95,NNE,33,5.7,6.9,70,0.00,,,0.01,WUHU216HW,2013-08-13 16:58:00,
2013-08-13 13:03:00,68.4,56.4,29.95,ENE,57,4.2,6.3,65,0.00,,,0.01,WUHU216HW,2013-08-13 17:03:00,
2013-08-13 13:08:00,67.7,54.8,29.95,NE,55,6.0,6.7,63,0.00,,,0.01,WUHU216HW,2013-08-13 17:08:00,
2013-08-13 13:15:00,67.7,56.7,29.95,NNE,18,2.6,4.9,67,0.00,,,0.01,WUHU216HW,2013-08-13 17:15:00,
2013-08-13 13:20:00,66.8,55.4,29.95,WNW,298,1.6,2.2,66,0.00,,,0.01,WUHU216HW,2013-08-13 17:20:00,
2013-08-13 13:25:00,67.3,55.9,29.95,NNW,340,2.3,4.0,66,0.00,,,0.01,WUHU216HW,2013-08-13 17:25:00,
2013-08-13 13:30:00,68.0,57.4,29.95,North,1,3.2,4.7,69,0.00,,,0.01,WUHU216HW,2013-08-13 17:30:00,
2013-08-13 13:35:00,68.8,57.8,29.96,NNE,30,1.8,2.2,67,0.00,,,0.01,WUHU216HW,2013-08-13 17:35:00,
2013-08-13 13:40:00,68.0,57.0,29.96,NNE,18,4.0,4.9,67,0.00,,,0.01,WUHU216HW,2013-08-13 17:40:00,
2013-08-13 13:45:00,67.7,56.7,29.96,East,96,2.1,3.6,67,0.00,,,0.01,WUHU216HW,2013-08-13 17:45:00,
2013-08-13 13:50:00,68.0,57.4,29.96,ENE,74,1.0,2.7,69,0.00,,,0.01,WUHU216HW,2013-08-13 17:50:00,
2013-08-13 13:55:00,67.3,55.4,29.96,NNW,343,2.4,3.4,65,0.00,,,0.01,WUHU216HW,2013-08-13 17:55:00,
2013-08-13 14:00:00,67.5,57.0,29.96,NW,321,2.9,4.3,69,0.00,,,0.01,WUHU216HW,2013-08-13 18:00:00,
2013-08-13 14:05:00,68.4,57.4,29.95,NE,49,3.0,3.4,67,0.00,,,0.01,WUHU216HW,2013-08-13 18:05:00,
2013-08-13 14:10:00,68.4,57.4,29.96,NNE,21,1.7,3.1,67,0.00,,,0.01,WUHU216HW,2013-08-13 18:10:00,
2013-08-13 14:15:00,68.2,56.7,29.96,NNE,30,4.8,6.0,66,0.00,,,0.01,WUHU216HW,2013-08-13 18:15:00,
2013-08-13 14:20:00,67.7,56.7,29.96,NE,40,1.1,2.5,67,0.00,,,0.01,WUHU216HW,2013-08-13 18:20:00,
2013-08-13 14:25:00,67.5,56.5,29.96,NNW,348,1.2,1.8,67,0.00,,,0.01,WUHU216HW,2013-08-13 18:25:00,
2013-08-13 14:30:00,67.7,56.7,29.96,NNE,32,1.8,2.5,67,0.00,,,0.01,WUHU216HW,2013-08-13 18:30:00,
2013-08-13 14:35:00,68.0,57.0,29.96,NE,53,2.8,3.6,67,0.00,,,0.01,WUHU216HW,2013-08-13 18:35:00,
2013-08-13 14:40:00,68.0,57.0,29.96,NNW,345,1.0,2.0,67,0.00,,,0.01,WUHU216HW,2013-08-13 18:40:00,
2013-08-13 14:45:00,67.9,56.9,29.96,North,0,1.5,2.7,67,0.00,,,0.01,WUHU216HW,2013-08-13 18:45:00,
2013-08-13 14:50:00,67.7,57.2,29.97,NNE,12,1.6,2.2,69,0.00,,,0.01,WUHU216HW,2013-08-13 18:50:00,
2013-08-13 14:55:00,68.4,57.4,29.96,NE,43,2.9,3.4,67,0.00,,,0.01,WUHU216HW,2013-08-13 18:55:00,
2013-08-13 15:00:00,69.1,58.0,29.96,NNE,23,1.8,2.2,67,0.00,,,0.01,WUHU216HW,2013-08-13 19:00:00,
2013-08-13 15:05:00,68.9,57.4,29.96,NNE,26,0.9,1.6,66,0.00,,,0.01,WUHU216HW,2013-08-13 19:05:00,
2013-08-13 15:10:00,68.0,56.5,29.96,North,9,2.1,3.4,66,0.00,,,0.01,WUHU216HW,2013-08-13 19:10:00,
2013-08-13 15:15:00,67.7,56.2,29.96,NNE,21,2.1,4.3,66,0.00,,,0.01,WUHU216HW,2013-08-13 19:15:00,
2013-08-13 15:21:00,67.9,56.9,29.96,East,81,1.5,2.5,67,0.00,,,0.01,WUHU216HW,2013-08-13 19:21:00,
2013-08-13 15:26:00,69.1,57.6,29.96,NNE,16,3.4,4.7,66,0.00,,,0.01,WUHU216HW,2013-08-13 19:26:00,
2013-08-13 15:31:00,68.8,56.3,29.96,East,92,2.3,2.5,64,0.00,,,0.01,WUHU216HW,2013-08-13 19:31:00,
2013-08-13 15:36:00,68.4,56.9,29.95,NNW,334,0.6,0.9,66,0.00,,,0.01,WUHU216HW,2013-08-13 19:36:00,
2013-08-13 15:41:00,69.5,57.0,29.95,East,93,2.6,4.0,64,0.00,,,0.01,WUHU216HW,2013-08-13 19:41:00,
2013-08-13 15:46:00,70.4,58.3,29.95,NE,50,1.5,2.5,65,0.00,,,0.01,WUHU216HW,2013-08-13 19:46:00,
2013-08-13 15:51:00,69.8,56.8,29.95,North,10,1.5,1.8,63,0.00,,,0.01,WUHU216HW,2013-08-13 19:51:00,
2013-08-13 15:56:00,68.6,56.1,29.95,North,353,0.8,2.7,64,0.00,,,0.01,WUHU216HW,2013-08-13 19:56:00,
2013-08-13 16:01:00,68.6,56.6,29.95,WNW,296,0.9,1.3,65,0.00,,,0.01,WUHU216HW,2013-08-13 20:01:00,
2013-08-13 16:06:00,69.3,57.3,29.94,WNW,292,1.7,2.2,65,0.00,,,0.01,WUHU216HW,2013-08-13 20:06:00,
2013-08-13 16:11:00,69.5,57.5,29.95,ESE,123,1.7,2.0,65,0.00,,,0.01,WUHU216HW,2013-08-13 20:11:00,
2013-08-13 16:16:00,70.2,58.2,29.94,NW,325,1.0,1.1,65,0.00,,,0.01,WUHU216HW,2013-08-13 20:16:00,
2013-08-13 16:21:00,70.9,58.8,29.95,WSW,249,4.8,6.3,65,0.00,,,0.01,WUHU216HW,2013-08-13 20:21:00,
2013-08-13 16:26:00,71.8,59.2,29.95,South,188,1.1,1.3,64,0.00,,,0.01,WUHU216HW,2013-08-13 20:26:00,
2013-08-13 16:31:00,71.1,58.0,29.95,WNW,288,2.7,4.0,63,0.00,,,0.01,WUHU216HW,2013-08-13 20:31:00,
2013-08-13 16:36:00,70.6,58.1,29.95,North,7,2.8,3.8,64,0.00,,,0.01,WUHU216HW,2013-08-13 20:36:00,
2013-08-13 16:41:00,70.7,58.1,29.95,WNW,284,1.9,2.2,64,0.00,,,0.01,WUHU216HW,2013-08-13 20:41:00,
2013-08-13 16:46:00,70.9,57.3,29.95,West,275,1.3,2.2,62,0.00,,,0.01,WUHU216HW,2013-08-13 20:46:00,
2013-08-13 16:51:00,70.0,56.5,29.95,WSW,246,2.3,3.6,62,0.00,,,0.01,WUHU216HW,2013-08-13 20:51:00,
2013-08-13 16:56:00,70.2,57.2,29.94,NNW,328,1.5,2.2,63,0.00,,,0.01,WUHU216HW,2013-08-13 20:56:00,
2013-08-13 17:01:00,69.8,56.3,29.95,WNW,286,0.7,0.9,62,0.00,,,0.01,WUHU216HW,2013-08-13 21:01:00,
2013-08-13 17:06:00,70.6,57.6,29.94,North,352,3.7,4.9,63,0.00,,,0.01,WUHU216HW,2013-08-13 21:06:00,
2013-08-13 17:11:00,71.1,58.0,29.95,West,275,2.8,3.6,63,0.00,,,0.01,WUHU216HW,2013-08-13 21:11:00,
2013-08-13 17:16:00,71.3,57.7,29.95,West,274,3.3,4.5,62,0.00,,,0.01,WUHU216HW,2013-08-13 21:16:00,
2013-08-13 17:21:00,71.3,57.7,29.95,West,262,2.1,4.7,62,0.00,,,0.01,WUHU216HW,2013-08-13 21:21:00,
2013-08-13 17:26:00,71.5,56.9,29.95,SW,221,2.8,3.4,60,0.00,,,0.01,WUHU216HW,2013-08-13 21:26:00,
2013-08-13 17:31:00,72.4,58.8,29.95,South,187,1.9,2.5,62,0.00,,,0.01,WUHU216HW,2013-08-13 21:31:00,
2013-08-13 17:37:00,73.1,58.9,29.94,WSW,255,0.5,1.8,61,0.00,,,0.01,WUHU216HW,2013-08-13 21:37:00,
2013-08-13 17:42:00,73.4,59.2,29.95,West,278,2.3,2.5,61,0.00,,,0.01,WUHU216HW,2013-08-13 21:42:00,
2013-08-13 17:47:00,73.1,57.3,29.95,WSW,251,4.0,4.9,57,0.00,,,0.01,WUHU216HW,2013-08-13 21:47:00,
2013-08-13 17:52:00,71.6,57.0,29.95,East,94,1.9,3.4,60,0.00,,,0.01,WUHU216HW,2013-08-13 21:52:00,
2013-08-13 17:57:00,71.3,57.2,29.95,WNW,283,4.2,6.5,61,0.00,,,0.01,WUHU216HW,2013-08-13 21:57:00,
2013-08-13 18:02:00,70.9,56.3,29.95,NE,44,1.8,2.7,60,0.00,,,0.01,WUHU216HW,2013-08-13 22:02:00,
2013-08-13 18:07:00,70.9,56.3,29.95,ENE,69,2.3,3.4,60,0.00,,,0.01,WUHU216HW,2013-08-13 22:07:00,
2013-08-13 18:12:00,70.6,56.5,29.95,SE,130,1.9,3.4,61,0.00,,,0.01,WUHU216HW,2013-08-13 22:12:00,
2013-08-13 18:17:00,70.4,56.9,29.95,SSE,155,0.4,0.7,62,0.00,,,0.01,WUHU216HW,2013-08-13 22:17:00,
2013-08-13 18:22:00,70.2,56.2,29.95,NNW,345,1.9,2.2,61,0.00,,,0.01,WUHU216HW,2013-08-13 22:22:00,
2013-08-13 18:27:00,68.9,54.4,29.95,NW,305,0.9,1.1,60,0.00,,,0.01,WUHU216HW,2013-08-13 22:27:00,
2013-08-13 18:32:00,67.9,54.0,29.95,North,357,0.9,1.1,61,0.00,,,0.01,WUHU216HW,2013-08-13 22:32:00,
2013-08-13 18:37:00,67.0,53.6,29.96,WSW,245,2.0,2.5,62,0.00,,,0.01,WUHU216HW,2013-08-13 22:37:00,
2013-08-13 18:42:00,66.1,53.3,29.96,East,89,0.9,1.3,63,0.00,,,0.01,WUHU216HW,2013-08-13 22:42:00,
2013-08-13 18:47:00,65.5,53.2,29.96,East,83,1.4,1.8,64,0.00,,,0.01,WUHU216HW,2013-08-13 22:47:00,
2013-08-13 18:52:00,65.2,53.4,29.95,NNE,28,2.3,2.5,65,0.00,,,0.01,WUHU216HW,2013-08-13 22:52:00,
2013-08-13 18:57:00,64.8,53.5,29.96,ENE,77,0.5,0.7,66,0.00,,,0.01,WUHU216HW,2013-08-13 22:57:00,
2013-08-13 19:02:00,64.3,52.5,29.96,NNW,347,1.1,1.6,65,0.00,,,0.01,WUHU216HW,2013-08-13 23:02:00,
2013-08-13 19:07:00,64.1,52.8,29.96,South,186,0.7,1.6,66,0.00,,,0.01,WUHU216HW,2013-08-13 23:07:00,
2013-08-13 19:12:00,64.1,53.3,29.96,NNE,22,1.1,2.5,67,0.00,,,0.01,WUHU216HW,2013-08-13 23:12:00,
2013-08-13 19:17:00,64.1,53.3,29.96,ESE,103,0.5,1.3,67,0.00,,,0.01,WUHU216HW,2013-08-13 23:17:00,
2013-08-13 19:22:00,64.1,53.3,29.96,ENE,76,1.0,1.1,67,0.00,,,0.01,WUHU216HW,2013-08-13 23:22:00,
2013-08-13 19:27:00,63.7,52.9,29.96,NNE,23,0.7,1.1,67,0.00,,,0.01,WUHU216HW,2013-08-13 23:27:00,
2013-08-13 19:32:00,63.4,53.0,29.96,North,0,0.0,0.0,69,0.00,,,0.01,WUHU216HW,2013-08-13 23:32:00,
2013-08-13 19:37:00,63.0,52.2,29.96,WNW,302,0.6,0.9,67,0.00,,,0.01,WUHU216HW,2013-08-13 23:37:00,
2013-08-13 19:42:00,62.3,52.0,29.96,SSW,200,1.5,2.2,69,0.00,,,0.01,WUHU216HW,2013-08-13 23:42:00,
2013-08-13 19:47:00,61.7,51.4,29.96,NNW,338,0.8,0.9,69,0.00,,,0.01,WUHU216HW,2013-08-13 23:47:00,
2013-08-13 19:52:00,61.2,51.4,29.97,NNE,12,0.6,1.1,70,0.00,,,0.01,WUHU216HW,2013-08-13 23:52:00,
2013-08-13 19:58:00,60.8,51.0,29.97,NNE,30,1.7,2.5,70,0.00,,,0.01,WUHU216HW,2013-08-13 23:58:00,
2013-08-13 20:03:00,60.3,50.5,29.97,NNE,22,2.0,3.8,70,0.00,,,0.01,WUHU216HW,2013-08-14 00:03:00,
2013-08-13 20:08:00,59.9,50.1,29.97,ENE,57,0.7,1.1,70,0.00,,,0.01,WUHU216HW,2013-08-14 00:08:00,
2013-08-13 20:13:00,59.6,49.8,29.97,NNW,341,0.7,1.1,70,0.00,,,0.01,WUHU216HW,2013-08-14 00:13:00,
2013-08-13 20:18:00,59.0,49.7,29.97,North,0,0.1,0.4,71,0.00,,,0.01,WUHU216HW,2013-08-14 00:18:00,
2013-08-13 20:23:00,58.7,49.8,29.97,NE,52,1.3,1.8,72,0.00,,,0.01,WUHU216HW,2013-08-14 00:23:00,
2013-08-13 20:28:00,58.1,49.2,29.97,NNE,29,1.3,2.5,72,0.00,,,0.01,WUHU216HW,2013-08-14 00:28:00,
2013-08-13 20:33:00,58.0,49.1,29.97,North,0,0.0,0.2,72,0.00,,,0.01,WUHU216HW,2013-08-14 00:33:00,
2013-08-13 20:38:00,57.6,49.1,29.97,North,0,0.1,0.2,73,0.00,,,0.01,WUHU216HW,2013-08-14 00:38:00,
2013-08-13 20:43:00,57.2,49.2,29.97,East,101,0.7,1.1,74,0.00,,,0.01,WUHU216HW,2013-08-14 00:43:00,
2013-08-13 20:48:00,56.7,49.1,29.97,NE,52,0.6,0.9,75,0.00,,,0.01,WUHU216HW,2013-08-14 00:48:00,
2013-08-13 20:53:00,56.5,48.9,29.97,North,8,0.9,1.6,75,0.00,,,0.01,WUHU216HW,2013-08-14 00:53:00,
2013-08-13 20:58:00,56.2,49.0,29.97,NE,41,1.0,1.1,76,0.00,,,0.01,WUHU216HW,2013-08-14 00:58:00,
2013-08-13 21:03:00,56.0,48.8,29.97,ESE,106,2.1,2.5,76,0.00,,,0.01,WUHU216HW,2013-08-14 01:03:00,
2013-08-13 21:08:00,55.8,48.6,29.98,NNW,346,2.0,4.7,76,0.00,,,0.01,WUHU216HW,2013-08-14 01:08:00,
2013-08-13 21:13:00,55.8,49.0,29.98,NNE,25,0.7,1.8,78,0.00,,,0.01,WUHU216HW,2013-08-14 01:13:00,
2013-08-13 21:18:00,55.4,48.6,29.98,NNE,23,0.5,0.9,78,0.00,,,0.01,WUHU216HW,2013-08-14 01:18:00,
2013-08-13 21:23:00,55.1,48.3,29.98,ENE,68,0.3,0.4,78,0.00,,,0.01,WUHU216HW,2013-08-14 01:23:00,
2013-08-13 21:28:00,54.7,48.3,29.99,North,0,0.0,0.0,79,0.00,,,0.01,WUHU216HW,2013-08-14 01:28:00,
2013-08-13 21:33:00,54.4,48.0,29.99,North,0,0.0,0.0,79,0.00,,,0.01,WUHU216HW,2013-08-14 01:33:00,
2013-08-13 21:38:00,53.8,47.8,29.99,North,0,0.0,0.0,80,0.00,,,0.01,WUHU216HW,2013-08-14 01:38:00,
2013-08-13 21:43:00,53.5,47.8,29.99,North,0,0.0,0.0,81,0.00,,,0.01,WUHU216HW,2013-08-14 01:43:00,
2013-08-13 21:48:00,53.1,47.4,29.99,North,0,0.0,0.0,81,0.00,,,0.01,WUHU216HW,2013-08-14 01:48:00,
2013-08-13 21:53:00,52.7,47.0,29.99,North,0,0.0,0.0,81,0.00,,,0.01,WUHU216HW,2013-08-14 01:53:00,
2013-08-13 21:58:00,52.6,47.3,29.99,North,0,0.0,0.0,82,0.00,,,0.01,WUHU216HW,2013-08-14 01:58:00,
2013-08-13 22:04:00,52.2,47.3,30.00,North,0,0.0,0.0,83,0.00,,,0.01,WUHU216HW,2013-08-14 02:04:00,
2013-08-13 22:09:00,51.8,46.9,30.00,North,0,0.0,0.0,83,0.00,,,0.01,WUHU216HW,2013-08-14 02:09:00,
2013-08-13 22:14:00,51.5,46.9,30.00,North,0,0.0,0.0,84,0.00,,,0.01,WUHU216HW,2013-08-14 02:14:00,
2013-08-13 22:19:00,51.1,46.9,30.00,North,0,0.0,0.0,85,0.00,,,0.01,WUHU216HW,2013-08-14 02:19:00,
2013-08-13 22:24:00,50.8,46.6,30.00,North,0,0.0,0.0,85,0.00,,,0.01,WUHU216HW,2013-08-14 02:24:00,
2013-08-13 22:29:00,50.6,46.7,30.00,North,0,0.0,0.0,87,0.00,,,0.01,WUHU216HW,2013-08-14 02:29:00,
2013-08-13 22:34:00,50.2,46.7,30.00,North,0,0.0,0.0,88,0.00,,,0.01,WUHU216HW,2013-08-14 02:34:00,
2013-08-13 22:39:00,50.0,46.5,30.00,North,0,0.0,0.0,88,0.00,,,0.01,WUHU216HW,2013-08-14 02:39:00,
2013-08-13 22:44:00,49.9,46.4,30.00,North,0,0.0,0.0,88,0.00,,,0.01,WUHU216HW,2013-08-14 02:44:00,
2013-08-13 22:49:00,49.7,46.5,30.00,North,0,0.0,0.0,89,0.00,,,0.01,WUHU216HW,2013-08-14 02:49:00,
2013-08-13 22:54:00,49.3,46.1,30.01,SSE,158,0.4,0.7,89,0.00,,,0.01,WUHU216HW,2013-08-14 02:54:00,
2013-08-13 22:59:00,49.1,45.9,30.00,North,0,0.0,0.0,89,0.00,,,0.01,WUHU216HW,2013-08-14 02:59:00,
2013-08-13 23:04:00,48.8,45.9,30.00,North,0,0.0,0.0,90,0.00,,,0.01,WUHU216HW,2013-08-14 03:04:00,
2013-08-13 23:09:00,48.6,45.7,30.00,North,0,0.0,0.0,90,0.00,,,0.01,WUHU216HW,2013-08-14 03:09:00,
2013-08-13 23:14:00,48.4,45.9,30.00,North,0,0.0,0.0,91,0.00,,,0.01,WUHU216HW,2013-08-14 03:14:00,
2013-08-13 23:19:00,48.2,45.3,30.00,North,0,0.0,0.0,90,0.00,,,0.01,WUHU216HW,2013-08-14 03:19:00,
2013-08-13 23:24:00,48.1,45.6,30.00,South,180,0.1,0.4,91,0.00,,,0.01,WUHU216HW,2013-08-14 03:24:00,
2013-08-13 23:29:00,48.1,45.6,30.00,North,0,0.0,0.0,91,0.00,,,0.01,WUHU216HW,2013-08-14 03:29:00,
2013-08-13 23:34:00,48.1,45.9,30.01,North,0,0.4,0.7,92,0.00,,,0.01,WUHU216HW,2013-08-14 03:34:00,
2013-08-13 23:39:00,48.4,46.5,30.01,NE,41,0.7,1.3,93,0.00,,,0.01,WUHU216HW,2013-08-14 03:39:00,
2013-08-13 23:44:00,48.6,47.0,30.01,North,0,0.2,0.4,94,0.00,,,0.01,WUHU216HW,2013-08-14 03:44:00,
2013-08-13 23:49:00,48.8,47.2,30.01,NNW,338,0.1,0.4,94,0.00,,,0.01,WUHU216HW,2013-08-14 03:49:00,
2013-08-13 23:54:00,48.8,47.2,30.01,North,0,0.1,0.2,94,0.00,,,0.01,WUHU216HW,2013-08-14 03:54:00,
2013-08-13 23:59:00,48.8,47.2,30.01,North,0,0.0,0.0,94,0.00,,,0.01,WUHU216HW,2013-08-14 03:59:00,